Regional Weather Roundup
Issued by NWS Green Bay, WI

Home | Current Version | Previous Version | Text Only | Print | Product List | Glossary Off
Versions: 1 2 3 4 5 6 7 8 9 10 11 12 13 14 15 16 17 18 19 20 21 22 23 24 25 26 27 28 29 30 31 32 33 34 35 36 37 38 39 40 41 42 43 44 45 46 47 48 49 50

000
ASUS43 KGRB 030511
RWRGRB

NORTH-CENTRAL AND NORTHEAST WISCONSIN REGIONAL WEATHER ROUNDUP
NATIONAL WEATHER SERVICE GREEN BAY WI
1200 AM CDT THU SEP 03 2015

WIZ005-009-010>012-018-019-030600-
NORTH CENTRAL WISCONSIN

CITY           SKY/WX    TMP DP  RH WIND       PRES   REMARKS
IRONWOOD       MOCLDY    61  61 100 CALM      29.95F VSB 1/2
MANITOWISH WTR PTCLDY    63  63 100 CALM      29.99F FOG
ARBOR VITAE    CLOUDY    66  64  94 CALM      29.98F
EAGLE RIVER    DRIZZLE   65  64  99 E7        29.98F
LAND O LAKES   MOCLDY    64  64  98 CALM      30.00F
RHINELANDER    CLOUDY    66  64  93 E5        29.98F
PHILLIPS       PTCLDY    63  63 100 CALM      29.98R
ANTIGO         CLOUDY    66  66  99 N5        29.95F
TOMAHAWK       CLOUDY    65  64  94 CALM      29.97S
MERRILL        CLOUDY    67  67 100 NE3       29.96S
$$

WIZ013-073-030600-
NORTHEAST WISCONSIN

CITY           SKY/WX    TMP DP  RH WIND       PRES   REMARKS
IRON MOUNTAIN  LGT RAIN  65  63  93 VRB5      29.95F FOG
MARINETTE      CLOUDY    66  63  88 E6        29.93S
OCONTO         CLOUDY    67  67 100 CALM      29.91F
$$

WIZ017-030-035>037-045-030600-
CENTRAL WISCONSIN

CITY           SKY/WX    TMP DP  RH WIND       PRES   REMARKS
MEDFORD        CLOUDY    67  67 100 NE6       29.96R
WAUSAU         LGT RAIN  68  67  96 N3        29.93S FOG
MOSINEE        CLOUDY    68  68 100 N6        29.95S FOG
MARSHFIELD     MOCLDY    71  66  84 CALM      29.93F
WISC RAPIDS    CLOUDY    73  70  90 SW3       29.93F
STEVENS POINT  MOCLDY    67  67  99 N3        29.93F FOG
WAUPACA        MOCLDY    72  71  96 CALM      29.91F
SHAWANO        NOT AVBL
CLINTONVILLE   CLOUDY    68  66  94 N3        29.91F
WAUTOMA        PTCLDY    73  70  91 CALM      29.93S
$$

WIZ038-039-048-051-030600-
FOX VALLEY

CITY           SKY/WX    TMP DP  RH WIND       PRES   REMARKS
NWS GREEN BAY  LGT RAIN  70  68  93 CALM      29.90F FOG
APPLETON       MOCLDY    72  66  83 S5        29.90F THUNDER
OSHKOSH        PTCLDY    73  68  84 SW7       29.91F
FOND DU LAC    PTCLDY    72  68  87 S6        29.92F
$$

WIZ022-050-052-030600-
EAST CENTRAL WISCONSIN

CITY           SKY/WX    TMP DP  RH WIND       PRES   REMARKS
EPHRAIM        HVY RAIN  68  67  97 SE3       29.94R VSB 1/2
STURGEON BAY   CLOUDY    68  63  83 CALM      29.94F
MANITOWOC      CLOUDY    61  59  93 MISG      29.93F FOG
SHEBOYGAN      MOCLDY    72  69  90 S7        29.93F
$$

LMZ563-521-522-541>543-030600-
LAKESHORE

STATION/POSITION TIME  TEMP    WIND        PRES    VSBY  WAVE
                       AIR SEA DIR/SP/G                  HT/PER
                 (UTC) (F)     (DEG/KT/KT) (MB)    (MI)  (FT/S)
SHEBOYGAN LKSHOR 0500   69     200/  9/ 10 1013.3F
KEWAUNEE LKSHORE 0400   58     180/ 10/ 10 1012.6F
ALGOMA MARINA    0414          230/  4/  6   N/A
NORTHPORT PIER   0400   67     150/  6/  9 1013.5S
N MID LAKE BUOY  0450   67 66  130/  4/  6 1013.3F         1
S GREEN BAY BUOY 0500   67 66  310/  6/  6 1014.5F
SISTER BAY LKSHO 0419   68     130/  8/ 11   N/A
CHAMBERS ISLAND  0400   66     240/ 14/ 20 1014.2R
MENOMINEE LKSHOR 0400   67     100/  4/  5 1012.7R
$$



USA.gov is the U.S. government's official web portal to all federal, state and local government web resources and services.